Regional Weather Roundup
Issued by NWS

Home | Current Version | Previous Version | Graphics & Text | Print | Product List | Glossary On
Versions: 1 2 3 4 5 6 7 8 9 10 11 12 13 14 15 16 17 18 19 20 21 22 23 24 25 26 27 28 29 30 31 32 33 34 35 36 37 38 39 40 41 42 43 44 45 46 47 48 49 50
000
ASUS43 KIND 271309
RWRIN

WEATHER ROUNDUP FOR INDIANA
NATIONAL WEATHER SERVICE INDIANAPOLIS IN
900 AM EDT TUE SEP 27 2016

NOTE: "FAIR" INDICATES FEW OR NO CLOUDS BELOW 12,000 FEET WITH NO
SIGNIFICANT WEATHER AND/OR OBSTRUCTIONS TO VISIBILITY.

* - STATION DOES NOT REPORT WEATHER SUCH AS PRECIPITATION OR FOG.

+ - STATION NOT QUALITY CONTROLLED BY THE NATIONAL WEATHER SERVICE.
    USE DATA WITH CAUTION...ESPECIALLY DEWPOINT AND RELATIVE
    HUMIDITY OBSERVATIONS.

INZ001>003-010>013-019-020-271400-
NORTHWEST INDIANA

CITY           SKY/WX    TMP DP  RH WIND       PRES   REMARKS
GARY /AIRPORT/ SUNNY     55  41  58 W9        29.86S
KNOX *+        SUNNY     50  28  43 SW9       29.87S
LA PORTE +     SUNNY     53  48  86 SW8       29.86S
MICHIGAN CITY+ SUNNY     52  43  71 MISG      29.85S
MONTICELLO +   SUNNY     52  40  65 SW6       29.90S
RENSSELAER +   SUNNY     54  45  71 SW10      29.90S
VALPARAISO     SUNNY     50  43  77 SW10      29.86F

$$

LMZ046-743>745-271400-
SOUTHERN LAKE MICHIGAN

STATION/POSITION TIME  TEMP    WIND        PRES    WAVE
                       AIR SEA DIR/SP/G            HT
                 (UTC) (F)     (DEG/KT/KT) (MB)    (FT)
BURNS HARBOR     1200   56     230/ 13/ 17 1011.5R
MICHIGAN CITY    1200   59     220/ 24/ 28   N/A
5NW MICH CITY    1300   61 67  270/ 19/ 23   N/A     5

$$

INZ004-005-014>016-021>024-271400-
NORTH CENTRAL INDIANA

CITY           SKY/WX    TMP DP  RH WIND       PRES   REMARKS
ELKHART        SUNNY    N/A N/A N/A SW9       29.83S
GOSHEN         SUNNY     51  42  71 SW12      29.84F
LOGANSPORT +   SUNNY     52  45  76 SW8       29.91S
PERU/GRISSOM   SUNNY     55  44  68 SW13      29.89S
ROCHESTER +    SUNNY     54  45  71 W9        29.88F
SOUTH BEND     SUNNY     50  43  77 SW10      29.85S
WARSAW +       SUNNY     52  41  66 W10G16    29.87S

$$

INZ006>009-017-018-025>027-271400-
NORTHEAST INDIANA

CITY           SKY/WX    TMP DP  RH WIND       PRES   REMARKS
ANGOLA *+        N/A     52  43  71 SW8       29.83F
AUBURN +       SUNNY     54  41  62 SW8       29.87S
FORT WAYNE     SUNNY     54  42  64 SW12      29.89S
HUNTINGTON +   SUNNY     55  43  65 W9        29.89S
KENDALLVILLE + SUNNY     51  42  71 SW13      29.85S

$$

INZ028-029-035-036-043>045-051>053-271400-
WEST CENTRAL INDIANA

CITY           SKY/WX    TMP DP  RH WIND       PRES   REMARKS
CRAWFORDSVL +  SUNNY     51  46  81 SW8       29.95S
GREENCASTLE +  SUNNY     52  48  87 CALM      29.98S
LAFAYETTE      SUNNY     51  46  83 SW6       29.92S
TERRE HAUTE    SUNNY     53  46  77 SW7       29.98F

$$

INZ030>032-037>040-046>048-054>057-064-065-271400-
CENTRAL INDIANA

CITY           SKY/WX    TMP DP  RH WIND       PRES   REMARKS
ANDERSON       SUNNY     52  45  76 S9        29.95
COLUMBUS       SUNNY     50  50 100 S5        29.99S
FISHERS *+     SUNNY     54  46  76 SW8       29.95F
FRANKFORT +    SUNNY     58  45  61 W10       29.94S
GREENWOOD *+   SUNNY     55  46  71 SW6       29.97F
INDIANAPOLIS   SUNNY     53  46  77 SW9       29.96F
-EAGLE CREEK   SUNNY     55  44  66 SW8       29.95S
MARION +       SUNNY     54  42  64 W9        29.92S HAZE
MT COMFORT *+  SUNNY     54  45  71 SW7       29.96F
SHELBYVILLE    SUNNY     53  46  77 SW8       29.97S
ZIONSVILLE +   SUNNY     55  44  66 SW9       29.95S

$$

INZ033-034-041-042-049-050-058-059-271400-
EAST CENTRAL INDIANA

CITY           SKY/WX    TMP DP  RH WIND       PRES   REMARKS
MUNCIE         SUNNY     57  43  59 SW8       29.93S

$$

INZ060-061-067>069-081>083-085>088-271400-
SOUTHWEST INDIANA

CITY           SKY/WX    TMP DP  RH WIND       PRES   REMARKS
EVANSVILLE     SUNNY     55  49  80 SW5       30.04R
HUNTINGBURG *+   N/A     52  48  87 CALM      30.03S
WASHINGTON +   SUNNY     56  47  72 MISG      30.01S

$$

INZ062-063-066-070>080-084-089>092-271400-
SOUTH CENTRAL AND SOUTHEAST INDIANA

CITY           SKY/WX    TMP DP  RH WIND       PRES   REMARKS
BLOOMINGTON    SUNNY     54  46  74 SW7       29.99F
MADISON *+     SUNNY     52  50  93 CALM      30.03S
NORTH VERNON + SUNNY    N/A N/A N/A S6        30.01S
SEYMOUR +      SUNNY     54  48  82 CALM      30.01S

$$




USA.gov is the U.S. government's official web portal to all federal, state and local government web resources and services.